Weather History for K1V4 - March, 2013

Change the Weather History Date:

Tuesday, March 26, 2013

  Actual Average Record
Temperature  
Mean Temperature 37 °F 35 °F  
Max Temperature 45 °F 46 °F 72 °F (1945)
Min Temperature 28 °F 24 °F -11 °F (1960)
Degree Days  
Heating Degree Days 28 30  
Month to date heating degree days 920 932  
Since 1 July heating degree days 6398 6656  
Cooling Degree Days 0 0  
Month to date cooling degree days 0 0  
Year to date cooling degree days 0 0  
Moisture  
Dew Point 22 °F    
Average Humidity 57    
Maximum Humidity 78    
Minimum Humidity 36    
Precipitation  
Precipitation 0.00 in 0.09 in 1.18 in (2002)
Month to date precipitation 1.81 2.08  
Year to date precipitation 5.19 6.76  
Sea Level Pressure  
Sea Level Pressure 29.70 in    
Wind  
Wind Speed - (North)    
Max Wind Speed -    
Max Gust Speed -    
T = Trace of Precipitation, MM = Missing Value Source: NWS Daily Summary

Daily Weather History Graph

Daily Weather History Graph

Search for Another Location

Airport or City:

Trip Planner

Search our weather history database for the weather conditions in past years. The results will help you decide how hot, cold, wet, or windy it might be!

Date:

Astronomy

Mar. 26, 2013 Rise Set
Actual Time 6:39 AM EDT 7:08 PM EDT
Civil Twilight 6:10 AM EDT 7:37 PM EDT
Nautical Twilight 5:36 AM EDT 8:11 PM EDT
Astronomical Twilight 5:00 AM EDT 8:47 PM EDT
Moon 6:42 PM EDT (3/26) 5:55 AM EDT (3/26)
Length of Visible Light 13h 26m
Length of Day
12h 28m
Waxing Gibbous, 99% of the Moon is Illuminated
Mar 26
Waxing Gibbous
Mar 27
Full
Apr 3
Last Quarter
Apr 10
New
Apr 18
First Quarter

Hourly Weather History & Observations

Time (EDT) Temp. Dew Point Humidity Pressure Visibility Wind Dir Wind Speed Gust Speed Precip Events Conditions
12:54 AM 36.0 °F 25.0 °F 64% 29.60 in - North - - N/A   Unknown
1:54 AM 35.1 °F 25.0 °F 67% 29.60 in - North - - N/A   Unknown
2:54 AM 34.0 °F 25.0 °F 70% 29.60 in - North - - N/A   Unknown
3:54 AM 34.0 °F 25.0 °F 70% 29.61 in - North - - N/A   Unknown
4:54 AM 33.1 °F 24.1 °F 70% 29.62 in - North - - N/A   Unknown
5:54 AM 33.1 °F 23.0 °F 66% 29.64 in - North - - N/A   Unknown
6:54 AM 32.0 °F 21.9 °F 66% 29.65 in - North - - N/A   Unknown
7:54 AM 32.0 °F 23.0 °F 69% 29.68 in - North - - N/A   Unknown
8:54 AM 33.1 °F 21.9 °F 64% 29.69 in - North - - N/A   Unknown
9:54 AM 36.0 °F 21.9 °F 57% 29.70 in - North - - N/A   Unknown
10:54 AM 37.0 °F 19.9 °F 50% 29.72 in - North - - N/A   Unknown
11:54 AM 37.9 °F 19.0 °F 47% 29.71 in - North - - N/A   Unknown
12:54 PM 43.0 °F 19.0 °F 38% 29.70 in - North - - N/A   Unknown
1:54 PM 42.1 °F 18.0 °F 38% 29.70 in - North - - N/A   Unknown
2:54 PM 43.0 °F 19.0 °F 38% 29.70 in - North - - N/A   Unknown
3:54 PM 44.1 °F 19.9 °F 38% 29.70 in - North - - N/A   Unknown
4:54 PM 45.0 °F 19.9 °F 37% 29.71 in - North - - N/A   Unknown
5:54 PM 41.0 °F 19.0 °F 41% 29.73 in - North - - N/A   Unknown
6:54 PM 39.9 °F 19.9 °F 45% 29.75 in - North - - N/A   Unknown
7:54 PM 36.0 °F 21.0 °F 55% 29.77 in - North - - N/A   Unknown
8:54 PM 33.1 °F 21.9 °F 64% 29.78 in - North - - N/A   Unknown
9:54 PM 30.0 °F 23.0 °F 75% 29.79 in - North - - N/A   Unknown
10:54 PM 28.9 °F 23.0 °F 78% 29.79 in - North - - N/A   Unknown
11:54 PM 28.9 °F 23.0 °F 78% 29.78 in - North - - N/A   Unknown